This is the latest recevied weather packets stored in our database for station/object KC5CAM-13. If no packets are shown the sender has not sent any weather packets the latest 10 day(s).
| Time | Temp. | Humidity | Pressure | Rain* | Wind** | Luminosity | Snow |
|---|---|---|---|---|---|---|---|
| 1777748276 | 25.56° C | 41% | 1021.9 hPa | 0 mm | - | 728 W/m² | - |
| 1777747973 | 25° C | 38% | 1021.9 hPa | 0 mm | - | 751 W/m² | - |
| 1777747669 | 25° C | 43% | 1021.9 hPa | 0 mm | - | 753 W/m² | - |
| 1777747365 | 25° C | 38% | 1021.9 hPa | 0 mm | - | 745 W/m² | - |
| 1777747062 | 25° C | 38% | 1022.2 hPa | 0 mm | - | 751 W/m² | - |
| 1777746758 | 25.56° C | 37% | 1022.1 hPa | 0 mm | - | 753 W/m² | - |
| 1777746453 | 24.44° C | 40% | 1022.2 hPa | 0 mm | - | 768 W/m² | - |
| 1777746149 | 23.33° C | 42% | 1022.1 hPa | 0 mm | - | 757 W/m² | - |
| 1777745846 | 23.33° C | 42% | 1022.3 hPa | 0 mm | - | 737 W/m² | - |
| 1777745545 | 23.89° C | 36% | 1022.3 hPa | 0 mm | - | 740 W/m² | - |
| 1777745242 | 23.89° C | 39% | 1022.5 hPa | 0 mm | - | 742 W/m² | - |
| 1777744940 | 23.89° C | 35% | 1022.6 hPa | 0 mm | - | 741 W/m² | - |
| 1777744639 | 24.44° C | 37% | 1022.4 hPa | 0 mm | - | 719 W/m² | - |
| 1777744335 | 23.89° C | 41% | 1022.6 hPa | 0 mm | - | 707 W/m² | - |
| 1777744032 | 23.89° C | 39% | 1022.6 hPa | 0 mm | - | 689 W/m² | - |
| 1777743729 | 23.33° C | 35% | 1022.7 hPa | 0 mm | - | 666 W/m² | - |
| 1777743426 | 23.33° C | 36% | 1022.8 hPa | 0 mm | - | 689 W/m² | - |
| 1777743123 | 22.78° C | 36% | 1023.1 hPa | 0 mm | - | 723 W/m² | - |
| 1777742821 | 23.33° C | 36% | 1023.1 hPa | 0 mm | - | 734 W/m² | - |
| 1777742516 | 23.33° C | 34% | 1022.9 hPa | 0 mm | - | 734 W/m² | - |
| 1777742212 | 23.33° C | 40% | 1023.1 hPa | 0 mm | - | 712 W/m² | - |
| 1777741909 | 22.78° C | 36% | 1023.2 hPa | 0 mm | - | 716 W/m² | - |
| 1777741607 | 22.78° C | 44% | 1023.2 hPa | 0 mm | - | 755 W/m² | - |
| 1777741304 | 22.78° C | 38% | 1023.1 hPa | 0 mm | - | 762 W/m² | - |
| 1777741000 | 22.78° C | 37% | 1023.1 hPa | 0 mm | - | 769 W/m² | - |
* Rain latest hour (hover to see other rain measurements)
** Current wind speed in m/s (hover to see current wind gust speed)